This is the latest recevied weather packets stored in our database for station/object KM7BEO. If no packets are shown the sender has not sent any weather packets the latest 10 day(s).
| Time | Temp. | Humidity | Pressure | Rain* | Wind** | Luminosity | Snow |
|---|---|---|---|---|---|---|---|
| 1777577668 | 15° C | 73% | 1019.3 hPa | 0 mm | - | 503 W/m² | - |
| 1777577366 | 15° C | 74% | 1019.3 hPa | 0 mm | - | 365 W/m² | - |
| 1777577061 | 14.44° C | 76% | 1019.4 hPa | 0 mm | - | 391 W/m² | - |
| 1777576759 | 14.44° C | 77% | 1019.4 hPa | 0 mm | - | 360 W/m² | - |
| 1777576457 | 15° C | 75% | 1019.5 hPa | 0 mm | - | 402 W/m² | - |
| 1777576155 | 15.56° C | 72% | 1019.5 hPa | 0 mm | - | 370 W/m² | - |
| 1777575849 | 15° C | 74% | 1019.5 hPa | 0 mm | - | 359 W/m² | - |
| 1777575547 | 15° C | 75% | 1019.5 hPa | 0 mm | - | 496 W/m² | - |
| 1777575242 | 14.44° C | 77% | 1019.5 hPa | 0 mm | - | 453 W/m² | - |
| 1777574938 | 14.44° C | 75% | 1019.8 hPa | 0 mm | - | 311 W/m² | - |
| 1777574635 | 15° C | 75% | 1019.6 hPa | 0 mm | - | 300 W/m² | - |
| 1777574332 | 15° C | 75% | 1019.8 hPa | 0 mm | - | 418 W/m² | - |
| 1777574032 | 15° C | 76% | 1019.8 hPa | 0 mm | - | 504 W/m² | - |
| 1777573727 | 14.44° C | 78% | 1020 hPa | 0 mm | - | 496 W/m² | - |
| 1777573424 | 13.89° C | 81% | 1019.8 hPa | 0 mm | - | 445 W/m² | - |
| 1777573119 | 13.89° C | 81% | 1020 hPa | 0 mm | - | 417 W/m² | - |
| 1777572816 | 13.33° C | 81% | 1019.9 hPa | 0 mm | - | 431 W/m² | - |
| 1777572512 | 13.33° C | 82% | 1020 hPa | 0 mm | - | 440 W/m² | - |
| 1777572208 | 13.33° C | 81% | 1020 hPa | 0 mm | - | 386 W/m² | - |
| 1777571903 | 13.89° C | 80% | 1020.1 hPa | 0 mm | - | 473 W/m² | - |
| 1777571598 | 13.89° C | 81% | 1020.2 hPa | 0 mm | - | 363 W/m² | - |
| 1777571296 | 13.89° C | 81% | 1020.1 hPa | 0 mm | - | 474 W/m² | - |
| 1777570992 | 13.33° C | 82% | 1020.3 hPa | 0 mm | - | 483 W/m² | - |
| 1777570688 | 13.89° C | 82% | 1020.3 hPa | 0 mm | - | 373 W/m² | - |
| 1777570385 | 13.33° C | 83% | 1020.5 hPa | 0 mm | - | 401 W/m² | - |
* Rain latest hour (hover to see other rain measurements)
** Current wind speed in m/s (hover to see current wind gust speed)